Simultaneous Nadir Overpasses (SNOs) Predictions

Prediction of SNOs between GOES-15 and LANDSAT-8 Satellite Orbit:

Table of predicted SNOs for the next 14.0 days since TLE Epoch: 7/4/2020
Index Date Time (GOES-15) GOES-15 Lat,Lon LANDSAT-8 Lat,Lon Distance(km) Time Diff (sec)
1 07/04/2020 07:00:31 -0.03,-128.20 -0.74,-131.66 393.27 80
2 07/06/2020 06:48:20 -0.03,-128.24 -0.14,-128.70 52.99 80
3 07/08/2020 06:33:30 -0.03,-128.27 0.52,-125.75 287.13 80
4 07/08/2020 18:54:46 0.02,-128.27 0.57,-130.91 299.28 80
5 07/10/2020 18:45:15 0.02,-128.31 -0.03,-127.95 40.94 80
6 07/12/2020 18:33:05 0.02,-128.35 -0.69,-125.00 380.80 80
7 07/13/2020 06:54:29 -0.01,-128.37 -0.43,-130.18 207.17 80
8 07/15/2020 06:39:39 -0.02,-128.40 0.24,-127.24 132.10 80
9 07/15/2020 19:00:55 0.01,-128.38 0.85,-132.39 455.71 80
10 07/17/2020 06:27:28 -0.02,-128.42 0.85,-124.27 470.68 80
11 07/17/2020 18:48:44 0.02,-128.40 0.24,-129.43 117.15 80
